Weather History for Gillette, WY

Change the Weather History Date:

Thursday, February 28, 2013

  Actual Average Record
Temperature  
Mean Temperature 29 °F 30 °F  
Max Temperature 37 °F 42 °F 37 °F (2014)
Min Temperature 20 °F 19 °F -2 °F (2014)
Degree Days  
Heating Degree Days 36 35  
Month to date heating degree days 1037 1054  
Since 1 July heating degree days 5123 5408  
Cooling Degree Days 0 0  
Month to date cooling degree days 0 0  
Year to date cooling degree days 0 0  
Moisture  
Dew Point 19 °F    
Average Humidity 70    
Maximum Humidity 88    
Minimum Humidity 51    
Precipitation  
Precipitation T in 0.01 in 0.06 in (2014)
Month to date precipitation 0.72 0.39  
Year to date precipitation 1.13 0.78  
Sea Level Pressure  
Sea Level Pressure 30.25 in    
Wind  
Wind Speed 9 mph (West)    
Max Wind Speed 21 mph    
Max Gust Speed 25 mph    
Visibility 10 miles    
Events      
T = Trace of Precipitation, MM = Missing Value Source: NWS Daily Summary

Daily Weather History Graph

Daily Weather History Graph

Search for Another Location

Airport:

Trip Planner

Search our weather history database for the weather conditions in past years. The results will help you decide how hot, cold, wet, or windy it might be!

Date:

Astronomy

Feb. 28, 2013 Rise Set
Actual Time 6:40 AM MST 5:49 PM MST
Civil Twilight 6:11 AM MST 6:18 PM MST
Nautical Twilight 5:37 AM MST 6:52 PM MST
Astronomical Twilight 5:04 AM MST 7:25 PM MST
Moon 9:29 PM MST (2/28) 7:42 AM MST (2/28)
Length of Visible Light 12h 07m
Length of Day
11h 08m
Waning Gibbous, 90% of the Moon is Illuminated
Feb 28
Waning Gibbous
Mar 4
Last Quarter
Mar 11
New
Mar 19
First Quarter
Mar 27
Full

Hourly Weather History & Observations

Time (MST) Temp. Windchill Dew Point Humidity Pressure Visibility Wind Dir Wind Speed Gust Speed Precip Events Conditions
12:53 AM 23.0 °F 11.7 °F 12.9 °F 65% 30.24 in 10.0 mi SW 11.5 mph - N/A   Clear
1:53 AM 25.0 °F 14.2 °F 14.0 °F 63% 30.22 in 10.0 mi WSW 11.5 mph - N/A   Mostly Cloudy
2:53 AM 21.9 °F 11.7 °F 14.0 °F 72% 30.23 in 10.0 mi West 9.2 mph - N/A   Mostly Cloudy
3:53 AM 21.0 °F 9.3 °F 12.9 °F 71% 30.23 in 10.0 mi West 11.5 mph - N/A   Clear
4:53 AM 23.0 °F 11.1 °F 15.8 °F 74% 30.16 in 10.0 mi West 12.7 mph - N/A   Overcast
5:53 AM 25.0 °F - 19.9 °F 81% 30.29 in 10.0 mi Calm Calm - 0.00 in   Overcast
6:53 AM 24.8 °F 15.3 °F 17.6 °F 74% 30.15 in 10.0 mi WSW 9.2 mph - N/A   Overcast
7:53 AM 28.0 °F 18.1 °F 18.0 °F 66% 30.29 in 10.0 mi West 11.5 mph - N/A   Scattered Clouds
8:53 AM 28.9 °F 19.8 °F 17.1 °F 61% 30.27 in 10.0 mi WSW 10.4 mph - N/A   Clear
9:53 AM 32.0 °F 23.6 °F 19.0 °F 59% 30.26 in 10.0 mi West 10.4 mph - N/A   Partly Cloudy
10:53 AM 34.0 °F 25.5 °F 18.0 °F 52% 30.26 in 10.0 mi West 11.5 mph - N/A   Clear
11:53 AM 35.1 °F 27.4 °F 19.9 °F 54% 30.25 in 10.0 mi WNW 10.4 mph - N/A   Clear
12:53 PM 35.6 °F 25.9 °F 19.4 °F 52% 30.15 in 10.0 mi NW 16.1 mph 20.7 mph N/A   Overcast
1:53 PM 36.0 °F 28.0 °F 19.0 °F 50% 30.23 in 10.0 mi NW 11.5 mph - N/A   Overcast
2:53 PM 35.6 °F 27.1 °F 21.2 °F 56% 30.13 in 10.0 mi WNW 12.7 mph - N/A   Overcast
3:53 PM 35.1 °F 27.4 °F 21.0 °F 57% 30.25 in 10.0 mi WNW 10.4 mph - N/A   Overcast
4:53 PM 35.1 °F 26.9 °F 23.0 °F 61% 30.24 in 10.0 mi NW 11.5 mph - N/A   Overcast
5:53 PM 32.0 °F 24.8 °F 24.1 °F 73% 30.26 in 10.0 mi WNW 8.1 mph - N/A   Overcast
6:53 PM 30.0 °F 25.2 °F 24.1 °F 79% 30.28 in 10.0 mi NW 4.6 mph - N/A   Mostly Cloudy
7:53 PM 28.0 °F 22.8 °F 23.0 °F 81% 30.29 in 10.0 mi NNE 4.6 mph - N/A   Overcast
8:53 PM 28.0 °F - 23.0 °F 81% 30.30 in 10.0 mi Calm Calm - N/A   Overcast
9:53 PM 25.0 °F 18.1 °F 21.9 °F 88% 30.31 in 10.0 mi SW 5.8 mph - 0.00 in   Mostly Cloudy
10:53 PM 27.0 °F 23.0 °F 23.0 °F 85% 30.30 in 10.0 mi SSW 3.5 mph - N/A   Overcast
11:53 PM 28.0 °F 22.8 °F 23.0 °F 81% 30.29 in 10.0 mi SSW 4.6 mph - N/A   Overcast